Temp
61 62 62 62 62 62 62 62 62 62 62 61 60 60 60 59 60 60 61 61 61 61 61 61 61 60 59 58 58 58 59 59 59 59 59 59 59 58 57 57 57 57 57 56 55 54 54 54 54 53 53 53 52 52 51 51 51 51 51 51 51 51 50 50 50 49 48 47 48
62 62 62 63 63 63 62 62 62 62 62 62 61 60 59 60 61 61 61 60 61 62 61 62 60 59 58 58 58 59 59 59 59 59 59 59 59 58 57 57 57 57 57 56 55 55 55 53 54 54 53 52 52 52 51 51 52 52 52 51 51 51 50 51 51 50 49 49 47
62 62 62 62 62 63 63 62 62 60 60 60 61 61 61 61 61 62 62 61 61 60 61 61 59 58 58 58 59 59 60 60 59 59 59 60 59 58 58 58 57 56 56 56 55 55 55 54 54 54 54 53 53 52 52 51 53 53 53 52 52 52 52 52 51 50 49 48 47
63 63 62 62 61 62 62 64 62 60 59 61 60 60 60 62 62 62 61 59 59 59 60 60 59 59 58 59 58 59 60 60 60 59 59 60 59 58 57 57 56 56 56 55 55 55 54 54 54 55 55 54 53 53 54 53 54 54 54 54 53 53 52 51 50 48 48 47 46
63 63 64 64 62 62 63 63 62 60 60 60 60 61 62 62 62 61 60 59 60 61 61 59 60 60 59 58 58 58 59 59 60 60 60 60 59 58 57 57 56 56 55 55 55 54 54 53 54 55 55 54 55 55 55 54 54 54 54 54 53 53 52 51 49 48 47 46 44
63 63 64 64 63 63 63 64 62 61 61 61 61 61 62 63 62 62 61 62 61 60 59 58 59 59 58 58 58 58 58 58 59 60 60 59 59 58 56 56 56 56 56 55 54 54 54 54 55 55 56 56 56 56 56 55 54 54 53 53 52 52 52 51 49 48 47 45 43
64 63 63 64 63 63 64 63 63 62 61 61 60 60 61 62 62 61 61 62 60 59 58 59 59 59 59 58 58 58 58 59 59 59 59 59 59 58 57 56 55 55 55 55 54 54 54 55 56 57 57 57 57 56 56 56 55 54 53 52 51 51 50 49 48 47 46 45 43
64 64 64 64 63 63 63 62 63 63 63 63 63 62 61 61 61 60 60 60 59 59 59 60 59 59 59 59 58 58 58 58 59 59 59 59 58 57 56 56 55 55 55 55 55 54 55 56 57 58 57 57 57 56 56 56 55 54 53 52 51 49 49 48 48 47 46 45 44
64 64 64 64 64 63 63 63 63 63 63 64 64 63 62 61 61 60 60 60 61 60 59 60 59 59 59 59 59 59 59 59 59 58 58 58 57 57 56 55 55 55 55 55 55 54 55 56 58 58 58 57 57 56 56 56 55 54 53 52 50 48 47 47 47 46 46 45 44
64 64 64 63 63 63 63 63 63 63 63 63 64 63 63 63 62 62 62 62 61 60 59 60 59 59 58 58 59 59 59 59 59 59 58 58 57 57 56 56 55 55 55 55 55 55 55 56 58 58 58 57 57 56 56 55 55 54 53 52 50 48 47 46 46 46 45 45 44
64 64 64 64 63 63 63 62 63 63 63 64 64 64 64 63 63 63 63 62 61 60 60 60 59 59 59 59 59 59 60 60 60 59 58 57 57 57 57 56 56 55 55 55 55 55 55 57 58 58 58 57 57 56 55 55 55 54 53 52 49 48 46 45 45 45 45 45 44
64 64 64 64 63 63 63 63 64 64 64 64 64 64 64 64 64 63 62 61 61 61 60 60 60 60 60 60 60 60 60 60 59 59 58 58 57 57 57 56 56 56 55 55 55 56 56 56 57 57 57 57 57 56 55 54 54 54 52 50 49 47 46 45 44 44 45 44 43
64 64 64 64 64 63 63 63 64 64 64 64 64 64 64 64 64 63 62 62 62 62 62 60 60 60 60 61 61 61 60 60 59 59 58 58 57 57 57 56 56 56 55 55 56 56 56 56 56 56 56 56 56 56 55 54 54 53 52 50 48 47 46 45 44 44 44 43 42
64 64 64 64 63 63 63 63 64 65 65 64 64 65 65 65 64 63 63 63 62 63 62 61 60 61 61 61 61 61 60 60 59 58 58 58 57 57 57 56 56 56 56 56 55 55 55 55 55 55 55 55 55 55 55 54 54 53 52 50 48 47 46 45 44 44 43 42 42
64 64 64 64 63 64 64 64 65 65 65 65 65 65 65 65 64 64 63 63 63 63 62 62 61 61 61 61 61 60 60 59 59 58 58 58 57 57 57 57 56 56 56 56 55 55 55 55 55 55 55 55 55 55 54 54 54 53 52 50 49 48 47 45 44 43 43 42 41
63 63 63 64 64 64 64 64 65 66 65 65 65 65 65 65 64 64 63 63 63 63 63 62 62 61 61 60 60 60 59 59 59 58 58 58 57 57 57 57 56 56 56 55 55 55 55 55 55 55 55 55 55 55 54 53 54 53 52 51 50 48 47 45 44 44 43 43 42
63 63 63 63 63 64 64 65 66 66 66 66 65 65 65 65 65 64 63 63 63 63 62 61 62 61 61 60 60 59 59 59 59 58 58 58 58 57 57 57 56 56 56 55 55 55 55 55 55 55 55 55 55 55 54 53 53 53 52 51 49 48 47 46 45 44 43 43 42
62 63 63 63 63 63 64 64 65 66 66 65 65 65 65 65 64 64 64 63 63 62 61 61 61 61 60 59 59 59 60 59 59 59 59 59 58 58 57 57 57 56 56 56 55 55 55 55 55 55 55 55 55 54 54 53 53 52 51 50 49 47 46 45 45 44 44 43 43
62 62 62 63 63 63 64 64 64 65 65 65 65 65 65 64 64 64 63 62 62 62 61 61 61 60 60 59 59 59 60 59 59 59 59 59 58 58 57 57 57 56 56 55 55 55 55 55 56 56 55 55 55 54 53 53 53 52 50 49 48 46 45 45 44 44 44 43 43
61 62 62 63 63 63 64 64 64 65 65 66 65 65 64 63 63 63 62 62 62 61 61 61 60 60 60 59 59 59 59 60 59 59 58 58 58 57 57 57 56 56 55 55 55 55 55 56 56 56 55 55 54 53 53 52 52 50 49 48 47 46 45 44 44 44 43 43 43
60 61 62 62 63 63 64 64 64 64 65 65 64 64 64 63 62 62 62 62 61 61 61 60 60 60 59 59 58 58 59 60 59 59 58 58 58 57 57 57 56 56 55 55 55 55 55 56 56 55 55 54 53 52 52 51 50 49 48 47 46 45 44 44 43 43 43 43 42
57 58 60 61 61 62 63 63 64 64 64 64 64 64 63 63 62 62 61 61 60 60 60 60 60 60 59 59 59 59 59 59 59 58 58 58 57 57 57 56 56 55 55 55 55 55 55 56 56 55 54 53 52 52 51 51 50 48 47 46 45 44 43 43 43 42 42 42 41
54 55 56 57 58 59 60 61 62 62 63 63 63 63 62 62 62 61 61 60 60 60 59 60 60 60 59 59 59 59 58 58 58 58 58 57 57 57 56 56 55 55 55 55 55 55 55 55 54 52 51 51 51 51 51 50 49 48 47 45 43 42 41 41 41 41 41 41 40
52 52 53 55 55 56 57 58 59 60 61 61 62 62 62 61 61 60 60 59 60 60 60 61 61 60 59 59 59 58 58 58 57 57 57 57 56 56 55 55 55 55 55 55 55 55 55 55 51 48 46 49 51 51 51 50 49 48 46 44 43 41 40 40 40 40 40 39 39
50 50 51 53 53 54 55 56 57 58 59 60 60 60 60 60 60 60 59 59 59 59 59 59 59 59 59 58 58 58 58 57 57 57 56 56 55 55 55 55 55 55 56 55 55 56 56 56 52 48 46 49 51 51 50 49 48 47 46 44 42 41 39 39 39 39 39 38 38
48 49 50 51 52 53 54 55 56 57 58 59 59 59 59 59 59 59 59 59 59 59 58 58 58 58 58 58 57 57 57 57 57 57 56 55 55 55 55 55 55 56 56 56 56 56 56 56 54 52 50 50 51 50 49 48 47 46 45 44 42 41 40 39 38 38 38 38 38
47 48 49 49 50 51 52 54 54 55 56 56 57 58 59 59 59 59 58 58 58 57 57 57 57 57 57 57 57 57 57 57 57 56 56 55 55 55 55 55 56 56 56 56 56 56 56 56 55 53 51 50 51 50 49 48 47 46 45 43 42 41 40 39 38 38 38 38 38
47 48 48 48 49 50 51 52 53 54 55 56 57 57 58 57 57 57 57 57 56 56 56 56 56 57 57 57 57 57 57 57 56 56 55 55 55 55 55 56 56 56 56 56 56 56 56 56 55 54 52 51 51 50 49 48 46 45 44 43 43 42 41 40 39 39 38 38 38
46 47 47 48 48 49 49 50 51 52 54 55 55 56 56 55 56 56 56 56 56 56 56 56 56 57 57 57 57 57 56 56 56 55 55 55 55 55 56 56 56 55 55 56 56 56 56 56 55 54 53 52 51 50 49 48 46 45 44 44 43 42 41 40 40 39 39 38 38
46 46 47 47 48 49 49 49 50 51 52 53 53 53 54 54 54 55 55 56 56 56 56 56 57 57 57 57 57 56 56 55 55 55 55 55 55 56 56 56 56 56 55 55 56 56 56 56 55 54 53 52 51 50 48 47 46 45 44 44 43 42 41 41 40 39 39 38 38
46 46 47 47 48 49 49 50 50 50 50 51 51 52 52 53 53 54 55 55 55 56 56 56 56 56 57 57 56 56 56 55 55 55 55 55 56 56 56 56 56 55 55 55 55 56 56 56 55 54 53 53 51 50 48 47 46 45 44 44 43 42 41 40 40 39 39 38 38
46 47 47 48 48 49 50 50 50 50 50 50 50 51 52 52 53 53 54 55 55 55 56 56 56 56 56 56 56 55 55 55 55 55 55 56 56 56 56 56 56 55 55 54 55 55 55 55 55 54 53 53 51 49 48 47 46 45 45 44 43 42 41 41 40 39 39 39 38
47 47 48 48 49 50 50 50 50 50 50 50 51 51 52 52 53 53 54 54 55 55 55 56 56 56 56 55 55 55 55 55 55 55 56 56 56 56 56 56 56 55 55 54 55 55 55 55 55 54 53 52 51 49 47 46 46 45 44 44 43 42 41 41 40 39 39 39 39
47 47 48 48 49 50 50 50 50 50 50 50 51 51 52 52 53 53 53 54 54 55 56 56 56 56 56 56 55 55 55 56 56 55 55 56 55 55 55 56 56 55 54 54 55 55 55 55 54 54 53 52 50 48 46 46 45 45 44 43 42 41 41 41 40 39 39 39 40
46 46 47 48 48 49 49 48 48 49 49 50 50 51 51 52 52 53 53 53 54 55 55 55 55 55 55 55 55 55 55 55 55 56 56 55 55 55 55 55 55 54 53 54 54 54 55 55 54 53 52 51 49 47 45 45 45 44 43 42 41 41 40 40 39 39 39 39 39
46 46 47 48 48 48 47 47 47 48 48 49 49 50 50 50 51 51 52 53 53 54 54 54 54 54 54 54 54 55 55 55 55 55 55 55 54 54 54 54 53 53 52 53 53 54 54 54 54 53 52 50 47 46 45 44 44 42 41 40 40 40 39 39 39 38 37 37 38
47 47 47 48 48 48 47 46 46 47 48 48 48 48 49 49 50 50 51 52 52 52 52 52 53 53 53 54 55 55 55 55 55 55 54 54 54 54 53 53 53 52 51 52 53 53 53 54 53 53 51 49 46 45 44 43 42 41 40 39 39 39 39 38 38 37 37 36 37
48 48 48 48 48 47 46 46 46 47 47 47 47 48 48 48 49 49 50 51 52 52 52 53 53 54 54 54 54 55 54 54 54 54 54 53 53 53 53 53 52 51 50 51 52 53 53 53 53 52 50 48 45 44 43 42 41 40 39 39 38 38 38 38 37 37 37 36 39
48 48 48 48 47 47 46 46 46 46 46 46 47 47 48 48 48 49 50 51 51 52 52 52 52 52 52 53 53 53 53 53 53 53 53 53 52 52 52 52 51 50 50 50 51 52 52 53 53 52 50 47 45 44 43 41 40 39 39 38 37 37 37 37 37 37 37 37 40
49 48 48 47 47 47 46 46 46 46 46 46 47 47 47 48 48 49 49 50 50 50 50 50 50 51 52 52 52 52 52 51 51 52 52 52 51 51 51 51 51 50 49 50 50 51 52 52 52 52 50 47 45 43 42 41 40 39 38 38 37 36 36 36 36 36 36 37 40
49 48 47 47 47 47 47 47 47 47 47 46 46 47 47 48 49 49 50 50 50 50 50 50 51 51 51 51 51 51 51 50 50 50 50 50 50 50 50 51 50 49 49 49 50 51 52 52 52 52 50 46 44 43 42 41 40 39 38 37 37 36 36 35 35 36 36 36 39
MSLP
1011.80 1011.92 1012.00 1012.08 1012.20 1012.32 1012.40 1012.44 1012.52 1012.64 1012.72 1012.84 1013.00 1013.12 1013.20 1013.28 1013.40 1013.44 1013.48 1013.56 1013.64 1013.68 1013.72 1013.76 1013.80 1013.88 1013.96 1014.00 1014.08 1014.20 1014.24 1014.32 1014.40 1014.44 1014.52 1014.52 1014.60 1014.68 1014.72 1014.80 1014.88 1014.96 1015.08 1015.16 1015.28 1015.40 1015.52 1015.68 1015.80 1015.92 1016.00 1016.08 1016.16 1016.24 1016.32 1016.40 1016.52 1016.68 1016.76 1016.84 1016.96 1017.04 1017.16 1017.28 1017.40 1017.52 1017.64 1017.72 1017.76
1011.72 1011.80 1011.84 1011.96 1012.04 1012.12 1012.24 1012.36 1012.44 1012.52 1012.56 1012.68 1012.80 1012.92 1013.00 1013.12 1013.16 1013.24 1013.32 1013.36 1013.40 1013.40 1013.48 1013.52 1013.60 1013.68 1013.80 1013.80 1013.88 1013.96 1014.04 1014.08 1014.16 1014.24 1014.32 1014.36 1014.40 1014.44 1014.52 1014.64 1014.68 1014.76 1014.84 1014.96 1015.12 1015.24 1015.36 1015.48 1015.60 1015.76 1015.84 1015.96 1016.04 1016.12 1016.20 1016.24 1016.36 1016.48 1016.60 1016.68 1016.76 1016.84 1016.96 1017.12 1017.20 1017.24 1017.36 1017.52 1017.60
1011.60 1011.68 1011.72 1011.80 1011.92 1012.00 1012.08 1012.20 1012.28 1012.40 1012.48 1012.52 1012.64 1012.68 1012.80 1012.88 1012.96 1013.04 1013.12 1013.12 1013.16 1013.24 1013.28 1013.36 1013.40 1013.48 1013.56 1013.68 1013.68 1013.72 1013.80 1013.88 1013.96 1014.04 1014.08 1014.16 1014.20 1014.24 1014.32 1014.40 1014.52 1014.60 1014.68 1014.80 1014.92 1015.04 1015.12 1015.28 1015.40 1015.52 1015.64 1015.76 1015.88 1015.96 1016.00 1016.08 1016.12 1016.24 1016.40 1016.48 1016.52 1016.68 1016.80 1016.92 1016.96 1017.08 1017.24 1017.36 1017.48
1011.40 1011.52 1011.60 1011.68 1011.80 1011.88 1011.96 1012.00 1012.08 1012.24 1012.32 1012.40 1012.48 1012.52 1012.60 1012.68 1012.72 1012.80 1012.84 1012.92 1013.00 1013.12 1013.12 1013.16 1013.24 1013.28 1013.36 1013.48 1013.52 1013.56 1013.60 1013.68 1013.76 1013.84 1013.92 1013.96 1013.96 1014.04 1014.12 1014.24 1014.32 1014.40 1014.52 1014.60 1014.72 1014.80 1014.96 1015.08 1015.24 1015.36 1015.40 1015.52 1015.68 1015.72 1015.76 1015.88 1015.96 1016.08 1016.12 1016.24 1016.32 1016.48 1016.60 1016.68 1016.80 1016.96 1017.12 1017.24 1017.36
1011.24 1011.32 1011.40 1011.48 1011.56 1011.68 1011.72 1011.80 1011.96 1012.04 1012.12 1012.20 1012.28 1012.40 1012.44 1012.48 1012.52 1012.60 1012.68 1012.80 1012.80 1012.84 1012.88 1012.96 1013.04 1013.12 1013.16 1013.24 1013.32 1013.40 1013.48 1013.48 1013.52 1013.60 1013.68 1013.72 1013.80 1013.84 1013.92 1014.04 1014.12 1014.24 1014.32 1014.40 1014.56 1014.68 1014.80 1014.96 1015.08 1015.16 1015.24 1015.32 1015.40 1015.44 1015.52 1015.64 1015.80 1015.96 1015.96 1016.04 1016.16 1016.24 1016.36 1016.44 1016.64 1016.80 1016.96 1017.12 1017.28
1011.08 1011.12 1011.20 1011.24 1011.40 1011.48 1011.56 1011.64 1011.72 1011.80 1011.92 1012.00 1012.08 1012.20 1012.24 1012.28 1012.36 1012.44 1012.52 1012.56 1012.60 1012.64 1012.68 1012.76 1012.80 1012.92 1013.00 1013.12 1013.16 1013.24 1013.28 1013.32 1013.40 1013.40 1013.48 1013.52 1013.56 1013.64 1013.76 1013.88 1013.96 1014.04 1014.12 1014.24 1014.40 1014.52 1014.68 1014.80 1014.96 1015.00 1015.08 1015.12 1015.20 1015.24 1015.28 1015.44 1015.64 1015.80 1015.88 1015.96 1016.00 1016.08 1016.20 1016.32 1016.52 1016.68 1016.88 1017.08 1017.28
1010.84 1010.96 1011.04 1011.12 1011.20 1011.24 1011.36 1011.44 1011.52 1011.64 1011.72 1011.80 1011.92 1011.96 1012.00 1012.08 1012.16 1012.24 1012.28 1012.28 1012.40 1012.48 1012.52 1012.60 1012.68 1012.76 1012.84 1012.96 1013.00 1013.08 1013.12 1013.16 1013.16 1013.24 1013.24 1013.32 1013.40 1013.48 1013.56 1013.68 1013.80 1013.88 1013.96 1014.08 1014.24 1014.36 1014.48 1014.64 1014.76 1014.84 1014.88 1014.96 1015.04 1015.12 1015.20 1015.32 1015.48 1015.64 1015.76 1015.88 1015.92 1016.00 1016.12 1016.24 1016.40 1016.60 1016.80 1017.00 1017.24
1010.68 1010.76 1010.80 1010.88 1010.96 1011.04 1011.12 1011.24 1011.32 1011.40 1011.52 1011.56 1011.64 1011.72 1011.80 1011.84 1011.96 1011.96 1012.00 1012.08 1012.20 1012.28 1012.36 1012.40 1012.52 1012.56 1012.64 1012.72 1012.80 1012.84 1012.92 1012.96 1013.00 1013.04 1013.08 1013.12 1013.24 1013.32 1013.40 1013.52 1013.60 1013.72 1013.80 1013.92 1014.04 1014.20 1014.32 1014.48 1014.56 1014.64 1014.72 1014.80 1014.88 1014.96 1015.00 1015.12 1015.32 1015.48 1015.60 1015.76 1015.84 1015.96 1016.08 1016.20 1016.36 1016.52 1016.68 1016.88 1017.08
1010.52 1010.52 1010.60 1010.68 1010.76 1010.84 1010.92 1011.00 1011.12 1011.20 1011.24 1011.28 1011.32 1011.40 1011.48 1011.56 1011.64 1011.68 1011.80 1011.88 1011.96 1012.04 1012.08 1012.20 1012.24 1012.36 1012.44 1012.52 1012.56 1012.68 1012.72 1012.76 1012.80 1012.84 1012.92 1012.96 1013.08 1013.16 1013.24 1013.32 1013.48 1013.56 1013.64 1013.72 1013.88 1014.00 1014.16 1014.24 1014.36 1014.44 1014.52 1014.60 1014.68 1014.76 1014.84 1015.00 1015.16 1015.28 1015.40 1015.56 1015.80 1015.96 1016.04 1016.12 1016.28 1016.44 1016.56 1016.80 1016.96
1010.32 1010.36 1010.44 1010.52 1010.56 1010.64 1010.68 1010.80 1010.88 1010.96 1010.96 1011.00 1011.00 1011.08 1011.12 1011.24 1011.36 1011.44 1011.52 1011.56 1011.68 1011.80 1011.96 1011.96 1012.04 1012.16 1012.24 1012.32 1012.36 1012.40 1012.44 1012.52 1012.56 1012.64 1012.72 1012.80 1012.88 1012.96 1013.08 1013.16 1013.28 1013.40 1013.52 1013.56 1013.68 1013.84 1014.00 1014.08 1014.16 1014.24 1014.24 1014.36 1014.44 1014.52 1014.68 1014.84 1015.00 1015.12 1015.28 1015.40 1015.68 1015.84 1016.00 1016.12 1016.24 1016.36 1016.48 1016.64 1016.80
1010.12 1010.16 1010.24 1010.32 1010.40 1010.44 1010.52 1010.64 1010.68 1010.72 1010.76 1010.80 1010.76 1010.80 1010.92 1010.96 1011.08 1011.16 1011.24 1011.36 1011.52 1011.64 1011.68 1011.68 1011.80 1011.96 1012.04 1012.08 1012.12 1012.20 1012.24 1012.24 1012.36 1012.40 1012.52 1012.60 1012.68 1012.76 1012.88 1012.96 1013.08 1013.16 1013.28 1013.40 1013.52 1013.68 1013.80 1013.92 1013.96 1014.00 1014.08 1014.20 1014.28 1014.40 1014.56 1014.68 1014.80 1014.96 1015.12 1015.28 1015.52 1015.68 1015.88 1016.04 1016.16 1016.24 1016.40 1016.52 1016.68
1009.96 1010.00 1010.08 1010.16 1010.20 1010.28 1010.40 1010.48 1010.48 1010.52 1010.52 1010.52 1010.52 1010.60 1010.68 1010.76 1010.80 1010.92 1011.04 1011.16 1011.28 1011.32 1011.36 1011.44 1011.56 1011.68 1011.80 1011.84 1011.88 1011.96 1012.00 1012.04 1012.12 1012.20 1012.28 1012.40 1012.48 1012.52 1012.64 1012.76 1012.84 1012.96 1013.08 1013.20 1013.32 1013.48 1013.60 1013.68 1013.76 1013.80 1013.92 1014.00 1014.08 1014.24 1014.40 1014.52 1014.68 1014.80 1015.00 1015.16 1015.40 1015.56 1015.76 1015.92 1016.08 1016.20 1016.32 1016.44 1016.60
1009.80 1009.84 1009.96 1010.00 1010.08 1010.16 1010.24 1010.24 1010.28 1010.32 1010.32 1010.28 1010.28 1010.40 1010.44 1010.52 1010.56 1010.68 1010.80 1010.92 1010.96 1011.00 1011.12 1011.24 1011.32 1011.40 1011.52 1011.56 1011.60 1011.68 1011.76 1011.84 1011.92 1012.00 1012.08 1012.16 1012.24 1012.36 1012.48 1012.56 1012.68 1012.76 1012.84 1012.96 1013.12 1013.24 1013.36 1013.48 1013.52 1013.64 1013.72 1013.84 1013.96 1014.08 1014.20 1014.36 1014.52 1014.68 1014.80 1015.04 1015.24 1015.40 1015.56 1015.76 1015.92 1016.08 1016.24 1016.40 1016.60
1009.68 1009.72 1009.80 1009.80 1009.92 1009.96 1010.04 1010.08 1010.08 1010.08 1010.08 1010.08 1010.08 1010.12 1010.20 1010.24 1010.32 1010.44 1010.52 1010.64 1010.68 1010.76 1010.84 1011.00 1011.12 1011.16 1011.24 1011.28 1011.36 1011.44 1011.52 1011.60 1011.72 1011.84 1011.96 1012.00 1012.08 1012.16 1012.28 1012.36 1012.44 1012.52 1012.68 1012.80 1012.88 1013.00 1013.12 1013.24 1013.32 1013.40 1013.52 1013.68 1013.76 1013.84 1014.00 1014.16 1014.28 1014.40 1014.60 1014.80 1015.04 1015.20 1015.36 1015.56 1015.80 1016.00 1016.20 1016.40 1016.52
1009.52 1009.56 1009.60 1009.68 1009.72 1009.80 1009.80 1009.84 1009.88 1009.84 1009.84 1009.80 1009.84 1009.88 1009.96 1010.00 1010.08 1010.20 1010.28 1010.36 1010.40 1010.48 1010.60 1010.76 1010.84 1010.92 1010.96 1011.00 1011.12 1011.20 1011.28 1011.40 1011.52 1011.68 1011.72 1011.80 1011.84 1011.96 1012.04 1012.08 1012.20 1012.32 1012.44 1012.56 1012.68 1012.80 1012.88 1012.96 1013.08 1013.20 1013.28 1013.44 1013.52 1013.68 1013.80 1013.96 1014.08 1014.20 1014.36 1014.52 1014.72 1014.92 1015.12 1015.40 1015.68 1015.84 1016.04 1016.20 1016.40
1009.36 1009.40 1009.44 1009.52 1009.56 1009.60 1009.64 1009.64 1009.64 1009.64 1009.64 1009.60 1009.60 1009.68 1009.72 1009.80 1009.84 1009.96 1010.00 1010.08 1010.16 1010.24 1010.36 1010.52 1010.60 1010.68 1010.72 1010.84 1010.92 1011.00 1011.12 1011.24 1011.36 1011.44 1011.52 1011.56 1011.64 1011.72 1011.80 1011.88 1011.96 1012.08 1012.20 1012.36 1012.52 1012.60 1012.68 1012.76 1012.84 1012.96 1013.12 1013.24 1013.36 1013.52 1013.64 1013.80 1013.88 1014.00 1014.12 1014.36 1014.52 1014.72 1014.96 1015.24 1015.52 1015.68 1015.84 1016.00 1016.24
1009.20 1009.24 1009.24 1009.36 1009.40 1009.40 1009.40 1009.40 1009.40 1009.36 1009.36 1009.40 1009.36 1009.40 1009.52 1009.52 1009.60 1009.68 1009.76 1009.80 1009.96 1010.04 1010.08 1010.20 1010.32 1010.44 1010.56 1010.68 1010.76 1010.84 1010.96 1011.08 1011.12 1011.24 1011.28 1011.32 1011.40 1011.44 1011.52 1011.68 1011.76 1011.84 1011.96 1012.16 1012.28 1012.40 1012.52 1012.60 1012.68 1012.80 1012.96 1013.04 1013.20 1013.36 1013.48 1013.64 1013.76 1013.88 1014.00 1014.20 1014.40 1014.64 1014.84 1015.12 1015.32 1015.52 1015.68 1015.84 1016.04
1009.12 1009.12 1009.12 1009.20 1009.20 1009.20 1009.20 1009.20 1009.20 1009.16 1009.12 1009.16 1009.20 1009.20 1009.24 1009.28 1009.40 1009.44 1009.48 1009.56 1009.68 1009.80 1009.92 1009.96 1010.08 1010.20 1010.32 1010.44 1010.52 1010.64 1010.76 1010.84 1010.92 1010.96 1010.96 1011.00 1011.12 1011.20 1011.32 1011.40 1011.52 1011.64 1011.80 1011.96 1012.08 1012.20 1012.32 1012.44 1012.60 1012.72 1012.84 1012.96 1013.08 1013.20 1013.32 1013.48 1013.60 1013.76 1013.96 1014.12 1014.32 1014.52 1014.76 1014.96 1015.16 1015.36 1015.52 1015.68 1015.88
1009.00 1009.00 1009.00 1009.04 1009.00 1009.00 1009.00 1009.00 1009.00 1008.96 1008.96 1008.96 1009.00 1009.04 1009.04 1009.08 1009.12 1009.20 1009.24 1009.36 1009.48 1009.52 1009.64 1009.80 1009.92 1009.96 1010.08 1010.20 1010.32 1010.40 1010.52 1010.56 1010.64 1010.68 1010.68 1010.76 1010.84 1010.96 1011.12 1011.24 1011.36 1011.52 1011.64 1011.76 1011.88 1012.00 1012.16 1012.28 1012.44 1012.56 1012.72 1012.84 1012.96 1013.12 1013.24 1013.40 1013.52 1013.68 1013.84 1014.08 1014.24 1014.44 1014.64 1014.84 1015.04 1015.20 1015.40 1015.56 1015.72
1008.84 1008.84 1008.84 1008.80 1008.80 1008.80 1008.80 1008.80 1008.80 1008.80 1008.76 1008.80 1008.80 1008.88 1008.92 1008.92 1008.92 1008.96 1009.08 1009.12 1009.24 1009.32 1009.44 1009.56 1009.68 1009.80 1009.88 1009.96 1010.08 1010.20 1010.24 1010.24 1010.36 1010.40 1010.48 1010.56 1010.68 1010.80 1010.92 1011.00 1011.16 1011.32 1011.48 1011.60 1011.72 1011.84 1012.00 1012.12 1012.28 1012.40 1012.56 1012.68 1012.84 1013.00 1013.16 1013.32 1013.48 1013.64 1013.80 1014.00 1014.20 1014.36 1014.52 1014.72 1014.92 1015.12 1015.28 1015.48 1015.68
1008.76 1008.72 1008.68 1008.64 1008.56 1008.56 1008.56 1008.52 1008.52 1008.56 1008.56 1008.56 1008.60 1008.64 1008.68 1008.72 1008.76 1008.80 1008.80 1008.88 1009.00 1009.12 1009.24 1009.36 1009.44 1009.56 1009.68 1009.76 1009.88 1009.96 1010.00 1010.00 1010.12 1010.24 1010.28 1010.40 1010.52 1010.60 1010.68 1010.84 1011.00 1011.16 1011.32 1011.44 1011.56 1011.68 1011.80 1011.96 1012.08 1012.24 1012.40 1012.52 1012.72 1012.88 1013.04 1013.24 1013.40 1013.52 1013.72 1013.96 1014.12 1014.28 1014.48 1014.68 1014.84 1015.04 1015.24 1015.40 1015.64
1008.76 1008.68 1008.64 1008.60 1008.52 1008.48 1008.44 1008.36 1008.40 1008.40 1008.40 1008.40 1008.40 1008.44 1008.48 1008.52 1008.56 1008.56 1008.60 1008.68 1008.80 1008.96 1009.00 1009.12 1009.16 1009.28 1009.40 1009.52 1009.64 1009.72 1009.80 1009.80 1009.96 1010.00 1010.08 1010.24 1010.32 1010.40 1010.52 1010.68 1010.88 1011.04 1011.20 1011.28 1011.40 1011.56 1011.68 1011.80 1011.92 1012.08 1012.24 1012.40 1012.56 1012.72 1012.88 1013.08 1013.24 1013.44 1013.68 1013.88 1014.08 1014.32 1014.52 1014.68 1014.84 1015.04 1015.20 1015.40 1015.56
1008.80 1008.72 1008.68 1008.64 1008.52 1008.52 1008.44 1008.40 1008.36 1008.36 1008.36 1008.28 1008.28 1008.28 1008.32 1008.36 1008.36 1008.40 1008.44 1008.52 1008.64 1008.72 1008.80 1008.84 1008.92 1009.00 1009.12 1009.24 1009.32 1009.44 1009.60 1009.68 1009.80 1009.84 1009.92 1010.04 1010.12 1010.24 1010.40 1010.60 1010.76 1010.88 1011.00 1011.12 1011.24 1011.36 1011.52 1011.68 1011.80 1011.92 1012.08 1012.24 1012.40 1012.56 1012.76 1012.96 1013.12 1013.36 1013.60 1013.84 1014.12 1014.36 1014.52 1014.76 1014.88 1015.04 1015.24 1015.40 1015.60
1008.80 1008.76 1008.68 1008.68 1008.60 1008.52 1008.48 1008.40 1008.40 1008.40 1008.36 1008.28 1008.24 1008.24 1008.24 1008.24 1008.24 1008.24 1008.32 1008.40 1008.44 1008.48 1008.52 1008.60 1008.68 1008.76 1008.88 1008.96 1009.12 1009.24 1009.40 1009.52 1009.64 1009.72 1009.80 1009.92 1010.00 1010.16 1010.32 1010.48 1010.60 1010.68 1010.80 1010.88 1011.00 1011.12 1011.24 1011.40 1011.64 1011.80 1011.96 1012.08 1012.24 1012.40 1012.64 1012.80 1013.00 1013.24 1013.52 1013.80 1014.08 1014.32 1014.52 1014.72 1014.88 1015.08 1015.24 1015.40 1015.60
1008.88 1008.80 1008.72 1008.64 1008.60 1008.52 1008.48 1008.40 1008.40 1008.36 1008.28 1008.24 1008.20 1008.16 1008.16 1008.16 1008.12 1008.20 1008.24 1008.24 1008.28 1008.32 1008.36 1008.40 1008.48 1008.56 1008.68 1008.84 1008.96 1009.12 1009.24 1009.36 1009.44 1009.56 1009.68 1009.80 1009.92 1010.08 1010.20 1010.36 1010.40 1010.52 1010.56 1010.68 1010.76 1010.84 1010.96 1011.12 1011.36 1011.60 1011.80 1011.96 1012.12 1012.28 1012.52 1012.72 1012.92 1013.12 1013.40 1013.68 1013.92 1014.20 1014.48 1014.68 1014.88 1015.00 1015.16 1015.40 1015.52
1008.92 1008.80 1008.72 1008.64 1008.56 1008.52 1008.40 1008.36 1008.28 1008.24 1008.20 1008.08 1008.08 1008.08 1008.08 1008.04 1008.04 1008.08 1008.08 1008.12 1008.12 1008.16 1008.20 1008.28 1008.36 1008.44 1008.60 1008.72 1008.84 1008.96 1009.12 1009.16 1009.24 1009.36 1009.52 1009.68 1009.80 1009.96 1010.08 1010.20 1010.24 1010.32 1010.40 1010.48 1010.56 1010.68 1010.80 1010.92 1011.12 1011.40 1011.64 1011.88 1012.04 1012.24 1012.48 1012.68 1012.84 1013.08 1013.32 1013.52 1013.80 1014.04 1014.32 1014.56 1014.80 1014.96 1015.12 1015.28 1015.44
1008.92 1008.80 1008.72 1008.64 1008.56 1008.48 1008.40 1008.28 1008.24 1008.16 1008.08 1008.04 1008.04 1007.96 1007.92 1007.84 1007.88 1007.92 1007.96 1007.96 1007.96 1008.04 1008.08 1008.16 1008.24 1008.40 1008.52 1008.60 1008.76 1008.84 1008.92 1008.96 1009.08 1009.20 1009.32 1009.52 1009.68 1009.80 1009.96 1010.04 1010.08 1010.12 1010.16 1010.24 1010.36 1010.52 1010.64 1010.80 1011.00 1011.24 1011.48 1011.72 1011.96 1012.16 1012.40 1012.60 1012.84 1013.08 1013.28 1013.48 1013.68 1013.84 1014.08 1014.36 1014.56 1014.80 1014.96 1015.12 1015.32
1008.92 1008.80 1008.68 1008.64 1008.56 1008.48 1008.40 1008.28 1008.24 1008.12 1008.04 1007.96 1007.92 1007.84 1007.80 1007.80 1007.84 1007.88 1007.88 1007.88 1007.92 1008.00 1008.08 1008.12 1008.20 1008.28 1008.40 1008.52 1008.60 1008.68 1008.72 1008.80 1008.92 1009.04 1009.20 1009.36 1009.48 1009.60 1009.72 1009.80 1009.84 1009.88 1009.96 1010.00 1010.16 1010.32 1010.52 1010.68 1010.88 1011.12 1011.36 1011.56 1011.80 1012.04 1012.24 1012.48 1012.76 1013.00 1013.24 1013.44 1013.64 1013.80 1013.96 1014.12 1014.36 1014.56 1014.80 1015.00 1015.20
1008.88 1008.80 1008.68 1008.64 1008.52 1008.44 1008.32 1008.24 1008.20 1008.08 1007.96 1007.88 1007.84 1007.76 1007.72 1007.76 1007.80 1007.80 1007.80 1007.80 1007.84 1007.96 1008.00 1008.04 1008.08 1008.24 1008.32 1008.40 1008.48 1008.52 1008.56 1008.68 1008.80 1008.96 1009.12 1009.24 1009.36 1009.44 1009.52 1009.56 1009.64 1009.68 1009.76 1009.84 1009.96 1010.16 1010.32 1010.52 1010.68 1010.96 1011.16 1011.40 1011.64 1011.88 1012.12 1012.36 1012.60 1012.88 1013.12 1013.28 1013.44 1013.60 1013.80 1013.96 1014.20 1014.40 1014.60 1014.80 1015.04
1008.80 1008.72 1008.64 1008.56 1008.48 1008.40 1008.28 1008.20 1008.12 1008.04 1007.96 1007.88 1007.80 1007.76 1007.72 1007.72 1007.68 1007.68 1007.68 1007.72 1007.76 1007.80 1007.80 1007.88 1008.00 1008.16 1008.24 1008.24 1008.32 1008.44 1008.56 1008.68 1008.76 1008.88 1009.04 1009.16 1009.24 1009.28 1009.32 1009.40 1009.44 1009.52 1009.56 1009.68 1009.80 1009.96 1010.16 1010.32 1010.52 1010.76 1010.96 1011.24 1011.48 1011.72 1011.96 1012.24 1012.44 1012.68 1012.88 1013.08 1013.24 1013.40 1013.60 1013.80 1014.00 1014.20 1014.40 1014.68 1014.88
1008.80 1008.72 1008.60 1008.52 1008.40 1008.28 1008.20 1008.08 1008.04 1007.96 1007.92 1007.84 1007.80 1007.72 1007.68 1007.64 1007.60 1007.56 1007.56 1007.60 1007.64 1007.64 1007.68 1007.80 1007.96 1008.08 1008.12 1008.12 1008.24 1008.40 1008.52 1008.60 1008.72 1008.84 1008.96 1009.00 1009.08 1009.12 1009.16 1009.24 1009.28 1009.36 1009.44 1009.60 1009.72 1009.88 1010.08 1010.24 1010.40 1010.64 1010.88 1011.12 1011.36 1011.56 1011.80 1012.04 1012.24 1012.48 1012.64 1012.80 1012.96 1013.24 1013.44 1013.64 1013.80 1014.00 1014.20 1014.40 1014.64
1008.88 1008.72 1008.56 1008.44 1008.36 1008.24 1008.16 1008.04 1007.96 1007.92 1007.80 1007.80 1007.72 1007.64 1007.60 1007.56 1007.52 1007.48 1007.48 1007.48 1007.52 1007.60 1007.68 1007.80 1007.96 1008.00 1008.08 1008.12 1008.24 1008.36 1008.44 1008.56 1008.68 1008.76 1008.80 1008.88 1008.96 1009.00 1009.12 1009.16 1009.24 1009.32 1009.48 1009.60 1009.76 1009.88 1010.00 1010.16 1010.36 1010.52 1010.76 1011.00 1011.20 1011.40 1011.64 1011.88 1012.08 1012.28 1012.44 1012.64 1012.80 1013.00 1013.24 1013.40 1013.64 1013.80 1013.96 1014.12 1014.32
1008.88 1008.72 1008.60 1008.44 1008.32 1008.20 1008.08 1008.00 1007.96 1007.84 1007.80 1007.68 1007.64 1007.60 1007.52 1007.52 1007.44 1007.40 1007.40 1007.40 1007.48 1007.56 1007.68 1007.80 1007.84 1007.96 1008.04 1008.16 1008.24 1008.36 1008.44 1008.56 1008.64 1008.68 1008.80 1008.84 1008.96 1009.04 1009.12 1009.20 1009.28 1009.40 1009.52 1009.68 1009.80 1009.92 1010.04 1010.16 1010.32 1010.52 1010.68 1010.88 1011.12 1011.36 1011.56 1011.80 1011.96 1012.20 1012.36 1012.52 1012.68 1012.92 1013.12 1013.24 1013.44 1013.60 1013.76 1013.92 1014.08
1008.96 1008.80 1008.64 1008.48 1008.36 1008.24 1008.08 1008.00 1007.96 1007.84 1007.76 1007.68 1007.64 1007.56 1007.52 1007.48 1007.44 1007.44 1007.40 1007.40 1007.44 1007.52 1007.64 1007.68 1007.80 1007.88 1007.96 1008.08 1008.24 1008.36 1008.44 1008.52 1008.60 1008.72 1008.80 1008.96 1009.04 1009.16 1009.24 1009.28 1009.32 1009.40 1009.52 1009.68 1009.80 1009.92 1010.04 1010.16 1010.28 1010.48 1010.68 1010.84 1011.12 1011.32 1011.52 1011.72 1011.88 1012.08 1012.32 1012.48 1012.64 1012.80 1013.04 1013.20 1013.36 1013.52 1013.64 1013.80 1013.96
1009.08 1008.96 1008.76 1008.52 1008.40 1008.24 1008.12 1008.04 1007.96 1007.88 1007.80 1007.80 1007.68 1007.60 1007.52 1007.52 1007.52 1007.48 1007.44 1007.44 1007.52 1007.56 1007.64 1007.72 1007.80 1007.92 1008.04 1008.16 1008.24 1008.36 1008.44 1008.52 1008.64 1008.76 1008.84 1008.96 1009.12 1009.20 1009.28 1009.32 1009.40 1009.44 1009.56 1009.68 1009.80 1009.88 1010.00 1010.16 1010.28 1010.48 1010.68 1010.92 1011.12 1011.36 1011.52 1011.68 1011.88 1012.08 1012.24 1012.44 1012.64 1012.80 1013.00 1013.20 1013.40 1013.52 1013.68 1013.80 1013.96
1009.16 1009.04 1008.84 1008.56 1008.48 1008.36 1008.24 1008.12 1008.08 1007.96 1007.96 1007.88 1007.80 1007.76 1007.68 1007.64 1007.60 1007.52 1007.52 1007.52 1007.56 1007.68 1007.76 1007.84 1007.96 1008.04 1008.16 1008.24 1008.28 1008.40 1008.48 1008.56 1008.68 1008.80 1008.88 1008.96 1009.12 1009.20 1009.24 1009.32 1009.40 1009.48 1009.56 1009.68 1009.76 1009.84 1009.96 1010.08 1010.28 1010.48 1010.72 1010.96 1011.16 1011.36 1011.52 1011.68 1011.88 1012.08 1012.28 1012.44 1012.64 1012.80 1012.96 1013.20 1013.40 1013.60 1013.76 1013.92 1014.04
1009.24 1009.12 1008.96 1008.80 1008.60 1008.44 1008.32 1008.24 1008.16 1008.08 1008.08 1008.04 1007.96 1007.92 1007.84 1007.80 1007.76 1007.68 1007.68 1007.68 1007.72 1007.80 1007.88 1007.96 1008.04 1008.12 1008.20 1008.24 1008.32 1008.44 1008.52 1008.64 1008.76 1008.88 1008.96 1009.04 1009.12 1009.20 1009.24 1009.36 1009.44 1009.52 1009.64 1009.68 1009.80 1009.84 1009.96 1010.12 1010.28 1010.48 1010.68 1010.96 1011.20 1011.40 1011.60 1011.80 1011.96 1012.12 1012.36 1012.52 1012.68 1012.84 1013.00 1013.20 1013.40 1013.64 1013.80 1013.96 1014.08
1009.28 1009.20 1009.04 1008.88 1008.72 1008.56 1008.44 1008.32 1008.24 1008.24 1008.20 1008.16 1008.12 1008.08 1008.00 1007.96 1007.96 1007.92 1007.88 1007.84 1007.92 1008.00 1008.08 1008.08 1008.16 1008.24 1008.32 1008.40 1008.52 1008.60 1008.68 1008.76 1008.80 1008.96 1009.00 1009.08 1009.12 1009.24 1009.32 1009.40 1009.52 1009.60 1009.68 1009.80 1009.84 1009.96 1010.04 1010.16 1010.28 1010.48 1010.68 1010.96 1011.16 1011.40 1011.64 1011.80 1012.04 1012.24 1012.40 1012.64 1012.80 1012.96 1013.12 1013.24 1013.44 1013.64 1013.80 1013.96 1014.04
1009.40 1009.28 1009.12 1009.00 1008.88 1008.68 1008.56 1008.48 1008.40 1008.36 1008.36 1008.36 1008.24 1008.20 1008.16 1008.12 1008.08 1008.08 1008.04 1008.00 1008.08 1008.16 1008.24 1008.32 1008.40 1008.44 1008.52 1008.56 1008.64 1008.72 1008.80 1008.84 1008.88 1008.96 1009.04 1009.12 1009.20 1009.24 1009.40 1009.48 1009.52 1009.64 1009.68 1009.80 1009.88 1009.96 1010.08 1010.12 1010.28 1010.44 1010.68 1010.96 1011.20 1011.40 1011.64 1011.88 1012.08 1012.28 1012.48 1012.68 1012.84 1013.04 1013.24 1013.36 1013.48 1013.60 1013.76 1013.92 1013.96
1009.52 1009.36 1009.24 1009.16 1009.00 1008.88 1008.72 1008.64 1008.56 1008.52 1008.48 1008.48 1008.40 1008.40 1008.32 1008.28 1008.24 1008.20 1008.16 1008.16 1008.24 1008.28 1008.40 1008.48 1008.52 1008.56 1008.64 1008.68 1008.76 1008.80 1008.92 1008.96 1009.00 1009.08 1009.12 1009.16 1009.24 1009.32 1009.40 1009.44 1009.52 1009.60 1009.68 1009.80 1009.84 1009.92 1010.00 1010.12 1010.24 1010.40 1010.68 1011.00 1011.24 1011.44 1011.68 1011.88 1012.08 1012.28 1012.48 1012.68 1012.84 1013.04 1013.24 1013.40 1013.52 1013.60 1013.72 1013.92 1013.96
1009.56 1009.44 1009.32 1009.24 1009.12 1009.00 1008.88 1008.76 1008.72 1008.64 1008.56 1008.52 1008.52 1008.52 1008.48 1008.40 1008.36 1008.32 1008.32 1008.36 1008.40 1008.40 1008.48 1008.56 1008.60 1008.68 1008.72 1008.80 1008.84 1008.96 1009.04 1009.12 1009.16 1009.20 1009.24 1009.28 1009.32 1009.40 1009.44 1009.48 1009.52 1009.64 1009.72 1009.76 1009.80 1009.88 1009.96 1010.08 1010.24 1010.40 1010.68 1010.96 1011.24 1011.40 1011.64 1011.84 1012.08 1012.28 1012.44 1012.60 1012.80 1013.00 1013.20 1013.40 1013.52 1013.60 1013.72 1013.84 1013.92
Wind_Speed
5 5 5 5 5 4 4 4 4 4 4 4 4 4 4 4 4 4 4 4 4 4 4 4 5 4 4 5 7 8 8 8 8 9 9 9 9 9 9 9 8 8 8 8 8 7 7 7 6 5 4 5 5 5 5 4 5 6 6 6 6 5 6 7 7 7 7 7 6
6 6 5 5 5 4 4 4 4 4 4 4 4 4 4 4 4 4 4 4 5 5 4 4 5 5 5 7 7 8 8 8 9 9 9 10 10 9 9 8 9 9 9 8 8 7 7 7 6 5 5 4 5 5 5 5 5 6 6 7 6 5 5 6 7 7 7 7 5
7 6 6 5 5 5 4 4 4 4 4 4 4 4 4 4 4 4 4 5 5 5 4 4 4 5 6 7 7 8 8 9 9 9 9 9 9 9 9 9 9 9 9 8 8 7 7 7 6 6 5 5 5 5 5 5 5 6 7 8 6 5 4 5 5 5 5 5 5
7 7 6 6 6 6 6 5 5 5 5 4 4 4 4 4 4 4 4 4 4 5 5 5 5 5 6 7 7 8 8 9 9 9 9 9 9 9 9 9 9 9 9 8 8 8 7 7 6 5 5 6 6 6 6 5 5 6 6 6 5 4 5 5 4 4 4 4 4
7 7 7 7 7 7 6 5 5 5 5 4 4 4 4 4 4 4 4 4 5 5 5 6 5 5 6 6 8 8 8 9 9 9 9 10 9 9 9 9 9 9 9 8 9 8 8 8 6 5 5 6 6 6 6 5 6 5 5 4 4 4 4 4 4 4 4 3 3
7 7 7 7 7 7 6 6 6 6 5 4 5 5 5 5 4 5 5 6 6 6 6 6 6 5 6 7 7 8 8 8 9 9 9 10 9 9 9 9 9 9 8 8 8 8 8 8 6 5 5 5 6 6 6 6 6 5 5 4 4 4 4 4 4 4 4 4 4
8 8 8 8 8 7 7 6 6 6 5 5 6 7 7 6 6 6 7 7 6 5 6 6 6 6 6 7 7 8 8 8 8 9 9 9 9 9 9 9 9 9 8 8 8 8 8 7 6 5 5 5 5 5 6 6 6 6 5 5 4 4 4 4 4 4 5 6 6
8 8 8 8 8 8 8 8 7 6 6 6 7 8 8 8 8 8 8 6 6 5 5 5 6 7 8 8 8 8 8 9 9 9 9 9 9 9 9 9 8 9 9 8 8 8 8 7 6 6 6 5 5 5 6 7 7 7 7 6 4 4 3 3 4 4 5 7 8
7 7 8 8 8 8 9 8 8 8 8 8 9 9 9 9 9 9 8 6 6 6 5 6 7 8 8 9 9 9 9 9 9 9 9 9 9 9 8 8 8 8 8 8 8 9 8 7 6 6 6 5 5 6 7 8 9 8 7 6 5 4 4 4 4 5 6 7 8
8 8 8 8 9 9 9 9 9 9 10 10 11 10 10 10 9 9 8 7 6 6 6 7 7 8 9 9 9 9 9 9 9 9 9 9 9 9 9 8 8 8 8 8 8 8 8 7 7 7 7 6 7 7 7 8 9 9 8 5 5 5 5 4 5 6 7 7 8
10 9 9 8 9 8 8 8 9 9 10 10 11 11 10 10 9 9 7 6 6 7 8 8 8 9 9 9 9 9 9 9 9 9 9 9 9 10 9 9 9 9 9 8 8 7 7 7 8 9 8 7 7 7 8 9 9 9 8 6 7 7 7 6 6 6 7 7 8
10 10 9 9 9 8 8 8 9 9 10 10 11 10 10 10 9 8 7 7 8 8 8 8 9 9 9 9 9 9 9 9 9 9 9 9 10 10 10 9 9 9 9 9 8 7 7 8 9 9 9 9 7 7 8 9 10 10 9 8 8 8 8 8 7 6 6 6 7
10 10 9 9 9 9 9 9 9 9 9 10 10 10 9 9 9 9 8 9 9 9 8 8 9 9 9 9 9 9 9 9 9 9 9 9 9 9 9 9 9 9 9 9 8 8 8 9 10 10 10 10 8 8 8 10 10 10 10 9 9 9 9 9 8 7 6 7 7
10 10 10 9 9 9 9 9 9 9 9 10 10 9 9 8 9 8 9 9 10 9 8 8 8 8 9 10 10 10 9 9 9 9 9 9 9 9 9 9 10 9 9 8 8 9 9 10 10 10 10 10 10 9 9 10 11 11 11 11 11 11 10 9 9 8 8 8 8
9 10 10 9 9 9 9 9 9 9 9 10 9 9 8 8 8 8 8 9 10 9 8 8 8 8 9 10 10 10 10 9 9 10 10 10 10 10 10 10 10 10 9 8 9 9 10 11 11 11 11 11 11 10 10 10 11 11 11 11 12 11 10 10 9 9 9 9 9
9 9 9 9 9 9 9 9 9 8 9 9 9 8 8 7 7 7 8 9 9 8 8 9 8 8 9 9 10 10 10 9 10 10 10 11 11 11 10 10 10 10 10 9 9 10 10 11 10 10 10 11 11 10 10 11 11 11 11 11 11 10 10 10 10 10 10 10 10
9 9 9 9 10 10 10 10 9 9 9 9 9 8 8 8 7 7 8 9 8 8 8 9 9 8 8 9 9 9 9 9 10 10 11 11 11 11 11 11 10 10 10 10 10 10 10 10 9 9 10 10 10 10 10 11 10 10 10 10 10 10 9 10 10 10 10 10 10
8 9 9 9 10 10 11 11 10 10 10 10 9 8 8 8 7 8 8 8 8 9 9 10 9 9 9 9 9 8 8 9 10 11 11 11 11 11 11 11 10 10 10 10 10 10 10 10 9 9 9 9 9 9 10 10 10 10 10 9 9 9 9 10 10 10 10 10 10
8 8 9 9 10 10 10 11 11 11 10 10 9 8 8 8 8 8 8 8 9 9 10 10 9 9 9 10 9 9 9 9 11 11 12 11 11 11 10 10 10 9 9 10 10 10 10 10 10 9 9 9 9 9 9 9 9 9 9 8 8 9 9 9 10 9 9 10 10
8 9 9 10 10 10 10 11 11 11 10 10 9 9 9 9 8 8 8 9 9 9 10 10 10 10 9 10 10 10 10 9 11 11 11 11 10 10 10 10 9 9 9 9 9 10 10 10 10 10 10 9 9 9 9 9 8 8 8 8 8 8 9 9 9 9 9 9 9
8 8 9 9 9 10 10 10 10 10 10 10 10 10 9 9 8 8 9 9 9 9 10 10 10 10 10 10 10 11 10 9 10 10 11 10 10 10 10 9 9 8 8 9 9 9 10 10 10 10 10 9 9 9 9 9 8 8 8 7 7 7 8 8 8 8 8 8 8
6 7 7 8 8 9 9 9 9 9 9 9 9 9 9 9 9 9 9 8 8 8 9 10 11 11 11 11 11 11 10 9 9 9 10 9 9 9 9 8 8 8 8 9 9 10 10 10 10 10 10 9 10 10 10 9 9 8 8 7 7 7 7 7 7 8 8 8 8
5 5 5 6 7 7 8 8 8 8 9 9 9 9 9 9 9 8 8 8 8 8 9 9 10 11 11 11 11 11 10 9 9 9 9 9 8 8 8 7 8 9 9 9 9 9 10 9 9 9 9 9 10 10 10 10 9 9 8 8 7 7 6 6 6 7 7 7 7
4 4 4 4 5 5 6 6 7 8 8 9 9 8 8 8 8 8 8 8 8 9 9 9 9 10 10 10 10 10 10 10 10 9 9 9 8 8 7 7 8 9 9 8 9 10 10 9 8 8 8 9 9 10 9 9 9 9 9 9 8 7 7 6 6 6 6 7 6
5 5 5 4 4 5 5 5 6 7 8 8 8 8 8 8 8 7 7 8 9 9 9 9 9 9 9 9 9 9 10 10 10 10 9 9 8 8 7 7 7 8 8 8 10 12 13 11 9 8 8 8 8 8 8 8 9 9 9 9 9 8 7 7 6 6 7 7 7
5 5 5 5 5 5 5 6 6 7 7 7 7 8 8 8 7 7 7 8 9 9 9 9 8 8 8 8 8 9 9 10 10 10 10 9 8 8 8 7 7 7 7 8 12 14 15 14 12 10 9 8 8 7 7 7 8 8 9 9 9 9 9 8 8 7 7 7 7
4 4 5 5 5 5 6 6 6 6 6 6 7 8 8 8 7 7 7 8 8 7 7 7 7 7 7 7 8 9 10 10 10 10 9 9 9 9 9 8 7 7 7 10 13 15 16 16 15 13 11 8 8 7 7 7 7 8 8 8 8 9 9 9 9 9 8 8 8
3 4 4 4 5 5 5 5 5 6 7 7 7 7 7 7 7 7 7 6 6 5 5 5 6 6 6 6 8 10 11 10 9 9 9 9 9 10 10 9 8 8 9 12 14 16 17 17 16 15 14 10 8 7 7 7 7 7 7 7 8 8 9 9 9 9 9 9 9
3 3 4 4 5 5 5 5 5 6 6 6 6 6 6 6 6 6 6 6 5 5 5 5 4 5 5 6 8 9 9 9 8 7 8 8 9 10 10 10 9 9 11 13 15 16 17 17 17 17 16 13 9 7 6 7 7 7 7 7 7 8 8 8 8 9 9 10 9
4 3 4 4 5 5 5 5 5 5 5 5 5 5 5 5 6 6 6 6 6 6 5 5 5 5 6 8 8 8 7 7 7 7 8 9 10 10 10 10 10 10 11 14 16 17 17 17 17 17 17 15 10 8 6 7 7 7 7 7 8 9 9 9 9 10 10 9 9
4 4 4 4 5 5 5 5 5 5 5 5 4 5 5 5 6 6 6 6 5 5 4 5 6 7 8 8 7 7 7 6 7 7 8 10 10 11 11 11 10 10 10 13 15 16 17 17 17 17 17 17 12 8 7 7 8 8 8 8 9 9 10 9 10 11 11 11 11
5 4 4 4 4 5 5 6 5 5 5 4 4 4 4 5 4 4 4 4 4 4 4 5 6 7 7 6 6 6 6 7 7 8 9 9 10 10 10 10 10 9 9 11 13 14 16 16 17 17 17 17 12 9 8 8 8 8 8 8 9 10 10 9 9 11 12 13 12
6 6 5 4 5 5 5 6 5 5 4 4 3 3 3 3 3 2 2 3 4 4 5 6 7 8 7 6 6 6 6 7 8 8 8 8 8 8 8 8 7 7 7 9 12 13 14 15 16 17 17 17 12 9 8 8 7 7 7 7 8 10 10 10 10 11 12 13 12
7 7 6 6 5 5 6 6 6 5 4 3 3 2 2 2 2 2 2 3 3 4 5 5 6 6 6 6 5 6 6 6 7 7 7 7 6 6 6 6 5 5 6 9 11 12 14 14 15 16 16 15 10 8 7 8 7 6 6 7 7 8 9 9 9 10 11 12 11
8 8 7 7 6 6 6 6 5 5 4 3 2 2 1 1 2 2 2 2 2 3 3 3 4 4 4 4 4 5 5 6 6 6 6 6 5 6 6 6 5 4 6 9 11 12 13 14 14 15 15 12 8 6 7 7 7 7 7 7 7 8 8 8 8 8 9 10 9
7 7 8 7 7 7 6 6 5 5 4 3 3 2 2 1 1 0 1 2 2 2 2 2 2 3 3 3 4 4 4 5 5 5 5 5 5 6 6 6 4 4 6 9 10 12 13 13 14 14 13 10 6 5 6 6 5 6 6 6 7 7 8 7 7 6 7 7 7
7 7 7 7 7 7 6 5 5 4 4 3 3 2 2 2 2 1 1 2 2 2 2 2 2 3 3 4 3 3 3 3 3 4 4 5 5 5 6 5 4 4 5 7 9 11 12 13 14 14 12 8 6 5 5 5 4 4 5 5 5 6 6 6 5 6 6 6 7
7 7 7 7 7 7 6 5 5 4 4 4 3 3 2 2 2 2 2 2 2 2 1 1 2 2 2 2 2 1 1 1 2 3 4 4 4 5 5 5 4 3 4 6 8 10 11 12 13 14 12 7 6 5 5 4 4 4 4 4 4 4 4 4 4 5 6 7 9
7 7 7 7 7 6 6 5 5 4 3 3 3 3 3 3 2 2 2 2 2 2 1 1 1 0 1 1 1 0 0 0 1 2 3 3 4 4 4 4 4 3 4 6 8 9 10 12 13 14 12 8 6 5 5 4 4 4 4 4 4 4 4 4 4 4 5 7 11
7 7 7 6 6 6 6 6 5 4 3 3 3 3 3 2 2 2 2 3 3 3 3 2 2 2 2 2 1 1 1 1 0 0 1 2 3 3 4 4 4 4 4 6 8 9 11 12 13 14 12 7 6 5 4 4 4 5 4 4 4 4 4 3 3 4 5 6 10
7 7 7 6 6 6 6 6 5 4 3 3 3 3 3 2 2 2 3 3 3 3 3 3 3 3 3 3 2 2 1 1 2 2 1 0 1 2 3 3 3 3 4 5 8 9 11 12 13 14 13 8 6 5 5 5 5 5 5 5 5 4 4 4 3 4 4 5 7
Wind_Direction
202 201 199 196 196 198 202 206 206 206 204 202 201 200 200 198 204 207 208 205 209 212 213 212 212 211 209 203 200 202 205 209 211 213 215 216 217 216 215 215 214 212 210 209 204 200 198 197 197 200 203 203 204 205 205 198 191 191 195 201 206 206 202 201 206 205 203 203 205
209 207 205 202 201 201 202 204 205 206 206 206 203 200 199 200 206 209 211 208 211 212 212 214 210 207 205 203 202 203 206 210 211 214 216 218 219 216 214 213 213 212 210 207 203 200 198 196 196 199 204 205 203 205 205 199 190 191 196 202 203 200 198 202 208 205 201 200 198
211 210 209 209 209 208 208 208 207 205 205 207 205 202 202 203 208 211 213 212 212 211 211 214 210 205 203 204 204 206 208 210 212 214 217 221 220 217 215 214 213 212 211 207 204 201 199 194 195 199 203 204 203 205 207 202 193 193 198 202 200 195 195 205 204 199 194 194 188
211 212 213 214 213 214 214 215 209 204 202 202 203 203 205 207 209 212 213 211 209 210 212 213 211 206 203 204 206 208 210 211 211 214 217 221 221 218 215 213 212 212 211 208 205 202 199 193 195 200 203 202 203 207 208 201 196 197 201 201 195 192 194 199 192 186 182 182 177
213 213 215 216 216 216 218 220 215 210 203 199 201 206 209 210 211 212 212 211 212 213 212 210 209 207 204 203 206 209 212 213 213 215 218 222 221 218 215 212 212 211 210 207 205 202 198 192 197 203 206 205 207 210 208 195 194 198 202 198 194 192 192 190 183 176 170 165 157
216 216 218 219 218 218 220 221 218 214 209 202 204 208 212 213 211 212 214 217 216 213 210 207 207 207 205 203 206 209 212 214 216 217 219 222 222 219 216 214 212 211 209 206 204 200 197 192 199 207 210 210 215 214 207 191 192 196 200 199 198 195 190 185 177 168 159 153 144
218 218 219 220 219 220 221 221 219 217 214 212 211 212 214 214 213 212 214 216 215 211 207 205 206 207 206 205 208 210 213 216 218 219 219 222 222 219 216 214 212 210 208 205 202 200 197 195 202 209 212 211 215 211 203 191 192 194 197 201 198 192 185 180 168 161 157 156 151
219 219 219 220 219 220 220 219 218 218 218 220 219 218 216 214 214 214 214 214 214 211 207 206 207 207 207 206 209 211 214 216 218 219 220 222 221 219 217 214 212 210 208 204 200 199 198 198 205 209 210 210 211 208 201 193 192 194 197 199 194 184 177 170 162 162 162 161 158
221 221 220 220 220 219 218 218 216 217 220 224 224 221 218 216 215 215 215 216 215 211 207 208 207 207 207 208 210 212 214 215 218 219 220 220 220 219 217 213 211 210 209 204 200 197 197 199 208 211 210 207 208 205 199 193 194 196 197 192 182 173 168 162 161 164 165 164 164
222 222 221 220 220 220 219 218 218 218 221 226 226 225 222 219 217 217 217 218 215 211 209 210 207 207 208 211 213 214 215 216 217 218 219 219 218 217 216 213 211 210 209 205 200 197 197 201 209 212 211 207 206 203 198 193 194 196 195 187 175 170 168 166 165 168 170 170 169
223 222 221 222 220 219 218 218 221 222 224 227 228 227 226 223 222 220 219 217 214 214 213 211 207 207 209 212 215 216 216 217 217 218 218 218 218 217 216 214 211 210 208 205 199 197 199 205 210 212 211 207 204 199 195 192 194 195 193 184 174 172 173 173 172 172 173 172 168
224 224 224 223 221 219 219 220 223 225 227 229 230 229 228 227 224 222 220 217 217 217 215 211 207 208 211 214 216 216 217 218 218 218 218 218 218 217 216 215 212 210 208 204 198 197 200 206 210 210 208 205 202 198 194 192 194 194 191 182 176 177 178 178 177 175 173 168 162
225 225 225 225 223 220 220 222 226 228 229 230 230 229 228 228 224 221 219 218 219 219 218 212 209 210 212 215 216 217 217 218 217 217 218 219 218 217 216 216 213 211 208 204 199 198 201 206 208 208 206 203 202 198 194 192 193 192 189 182 182 183 184 181 178 174 168 164 162
226 226 226 226 224 223 223 225 228 230 231 232 231 230 229 228 224 220 218 219 221 221 219 214 211 212 214 215 216 216 216 216 216 216 218 219 218 216 215 216 213 210 208 205 200 199 201 205 206 206 205 203 202 199 195 192 193 192 190 185 187 188 187 181 176 171 168 168 166
227 227 227 226 225 225 226 227 230 232 233 233 232 230 228 227 223 219 218 220 221 220 218 214 214 215 215 215 216 215 215 215 215 216 217 220 219 217 215 215 212 210 207 204 202 201 202 204 205 205 204 203 201 199 196 194 195 195 192 189 190 189 186 179 175 173 173 172 169
228 228 227 226 226 227 228 228 231 233 234 234 232 230 227 227 223 219 217 219 220 219 217 215 215 215 215 214 214 215 215 215 215 216 218 220 219 217 216 214 212 209 206 202 202 203 204 205 204 204 203 203 201 198 196 196 197 197 195 192 191 187 183 177 176 176 177 175 172
230 230 229 227 228 229 230 231 233 234 235 235 232 229 226 226 224 220 218 217 217 217 217 216 215 214 213 214 213 213 214 216 216 217 219 220 220 218 216 214 212 208 204 201 201 203 205 205 204 203 203 203 201 199 197 198 199 198 196 193 189 185 181 177 177 178 179 177 175
233 233 231 230 230 231 232 233 235 236 237 237 234 231 227 225 224 222 219 216 214 214 215 216 214 213 212 212 211 211 212 215 217 218 219 220 219 218 216 215 212 207 203 201 201 202 202 203 202 202 202 203 202 200 198 198 200 198 195 191 186 182 179 178 179 179 179 179 177
236 235 234 233 233 234 234 235 236 237 238 238 237 234 231 227 224 223 221 218 214 212 213 214 214 213 212 210 210 210 212 214 217 219 220 220 219 218 216 214 210 206 202 201 202 201 201 200 200 200 200 201 201 200 199 199 198 196 191 187 183 179 178 178 179 179 179 179 176
239 238 236 235 235 236 236 236 237 237 239 239 238 237 234 230 225 223 222 220 215 211 211 212 213 213 212 210 210 211 212 214 216 218 220 219 218 217 215 212 207 203 200 199 201 200 200 199 198 198 197 197 198 197 197 196 195 191 187 183 180 178 177 177 177 177 177 177 173
245 243 242 240 239 239 239 239 239 239 239 239 238 237 235 232 228 225 223 220 214 211 210 211 211 211 210 210 210 212 214 215 215 217 218 218 217 215 212 208 203 200 197 197 199 199 198 198 197 196 195 194 194 194 193 192 190 187 183 179 177 176 175 175 174 173 173 174 172
252 252 251 251 249 248 247 246 245 244 242 242 240 238 237 234 230 227 223 220 213 210 210 211 210 210 209 209 210 211 214 215 214 215 216 216 216 213 209 201 197 195 195 196 197 197 197 197 195 194 192 192 192 192 191 189 187 184 180 175 171 170 170 170 170 170 171 172 172
260 262 262 262 260 259 258 257 255 253 251 248 246 243 240 237 234 229 225 219 215 212 211 212 211 210 209 209 209 210 211 213 214 215 215 214 212 209 203 195 193 194 195 196 195 195 195 195 194 192 189 189 190 191 189 188 185 181 177 171 166 163 163 165 166 166 167 168 170
281 280 277 273 268 265 263 262 260 259 256 254 252 249 245 242 239 233 228 222 218 215 213 213 211 209 209 208 207 207 208 209 212 213 213 211 208 203 196 192 193 195 197 197 195 193 192 191 190 188 186 188 190 189 188 186 184 180 175 170 165 162 161 162 163 163 164 165 167
298 296 292 286 277 271 266 261 258 256 255 254 253 251 249 246 242 237 232 227 222 218 215 213 211 208 206 206 205 204 204 206 208 209 209 208 203 197 193 192 196 198 199 198 196 194 193 190 186 184 184 187 188 187 185 184 182 178 174 170 165 162 161 163 164 165 165 165 167
300 300 298 292 288 281 272 263 256 254 252 253 252 251 249 246 243 238 234 230 226 221 216 212 209 205 202 201 201 202 204 206 207 206 204 203 199 195 193 195 198 201 201 200 197 196 194 192 186 181 180 185 185 183 182 182 180 177 173 170 167 165 165 167 169 170 169 168 169
297 297 295 293 290 284 276 268 262 258 255 252 250 248 246 244 243 240 236 233 228 222 216 211 207 202 198 197 199 202 205 207 206 204 201 198 195 195 196 199 200 202 202 200 197 196 195 193 186 181 179 182 182 181 179 178 177 173 171 171 170 170 171 172 173 173 172 172 171
297 296 296 296 291 283 275 270 265 261 257 253 249 248 247 245 243 241 238 235 229 221 213 208 203 198 195 197 201 204 205 205 203 201 198 196 195 196 198 201 202 203 202 199 197 196 195 193 188 183 180 181 180 179 176 172 171 172 172 174 175 175 176 176 174 173 173 173 174
304 304 306 305 297 288 280 271 264 260 257 255 253 252 251 248 244 239 236 233 224 215 208 204 198 194 196 202 206 206 205 203 200 196 194 195 198 200 201 203 204 204 202 199 197 196 195 194 188 184 181 180 178 175 173 171 171 173 176 179 179 179 178 178 175 173 173 173 174
312 313 314 312 305 299 292 281 271 265 262 261 259 256 252 247 241 235 230 224 217 210 203 193 189 192 199 204 205 205 203 202 197 193 193 196 201 204 205 205 206 205 203 199 198 196 195 193 189 185 182 180 176 172 171 172 173 176 179 183 182 180 179 178 175 173 173 172 173
314 315 316 315 311 306 301 294 288 279 273 267 260 253 246 241 236 230 224 216 210 203 192 181 186 193 201 203 201 200 200 199 195 194 196 200 203 206 207 208 209 208 205 199 198 196 195 193 189 186 183 180 177 174 173 174 176 179 182 183 182 180 179 177 176 175 174 172 173
318 318 318 319 315 310 306 305 302 295 285 271 259 249 242 236 231 225 215 205 196 187 180 179 188 195 200 200 199 199 197 196 197 198 201 203 206 208 210 211 212 211 206 198 198 197 196 194 190 186 183 181 178 175 173 174 177 180 182 183 181 180 180 179 178 177 177 175 175
328 326 324 323 319 316 314 314 311 305 296 279 262 248 239 232 227 216 202 189 180 178 179 184 191 196 198 197 199 199 199 199 200 203 205 207 209 211 214 216 218 214 205 196 197 197 196 194 190 187 184 181 177 174 172 173 177 179 182 182 181 181 181 181 179 179 179 179 179
334 331 329 327 325 323 322 322 320 315 307 293 276 257 240 228 218 205 192 180 175 177 181 187 192 195 197 196 196 198 201 202 203 205 206 209 212 216 220 224 224 212 199 193 196 197 197 195 191 186 182 179 175 171 171 175 176 178 180 180 179 179 181 183 181 181 181 181 181
337 334 331 329 329 329 329 329 327 324 319 310 301 289 271 236 210 195 183 168 164 170 178 186 189 191 193 194 195 198 201 203 203 203 204 205 209 215 222 228 226 207 191 189 194 196 196 195 190 184 179 175 171 168 170 174 175 176 175 174 174 176 179 181 179 179 180 180 181
339 336 332 329 330 332 334 334 333 331 328 321 318 317 317 313 295 182 148 135 141 152 164 172 174 181 189 196 198 200 202 202 202 201 200 200 203 212 220 225 222 201 187 187 193 195 195 193 187 180 175 171 167 166 169 172 172 170 168 169 171 174 175 175 173 173 175 178 179
339 336 332 330 332 334 337 338 339 337 333 327 327 331 337 346 356 14 47 93 122 144 158 164 172 184 193 198 201 204 204 202 200 200 201 201 204 210 217 222 216 198 186 187 193 195 194 191 183 177 172 168 165 163 164 166 163 160 160 163 165 167 167 165 163 164 169 175 178
338 336 334 331 333 336 340 345 347 343 336 331 334 342 354 5 11 17 31 59 97 128 154 165 180 192 198 197 197 201 203 194 195 199 202 205 206 210 215 221 215 197 184 185 192 194 193 190 183 177 171 164 162 160 159 158 156 155 156 156 155 155 156 156 156 161 168 178 183
339 339 336 333 335 339 346 354 355 350 344 339 346 356 5 16 19 22 30 46 65 82 94 95 83 56 53 69 99 101 106 128 181 194 199 204 205 205 208 216 212 195 180 182 190 193 193 190 183 177 170 160 158 156 155 154 154 153 153 150 148 148 150 153 156 162 171 183 189
345 344 342 337 338 345 353 2 2 360 357 360 2 3 5 13 19 27 37 47 57 65 72 72 62 57 58 69 85 95 85 57 64 169 192 198 196 198 202 210 205 192 179 181 188 191 191 189 182 176 168 156 155 153 151 152 154 156 156 154 151 151 153 157 160 164 172 184 193
356 354 350 344 345 351 360 7 7 9 13 19 13 5 358 2 16 29 39 50 58 66 73 79 76 72 72 76 82 84 73 47 31 27 30 110 184 196 203 209 203 191 180 181 187 190 190 188 182 175 168 157 155 153 152 154 159 163 164 162 158 158 158 161 165 167 174 183 195